Regional Weather Roundup
Issued by NWS Huntsville, AL

Home | Current Version | Previous Version | Text Only | Print | Product List | Glossary On
Versions: 1 2 3 4 5 6 7 8 9 10 11 12 13 14 15 16 17 18 19 20 21 22 23 24 25 26 27 28 29 30 31 32 33 34 35 36 37 38 39 40 41 42 43 44 45 46 47 48 49 50
000
ASUS44 KHUN 030910
RWRHUN

WEATHER ROUNDUP FOR THE TENNESSEE VALLEY
NATIONAL WEATHER SERVICE HUNTSVILLE AL
400 AM CDT TUE MAY 03 2016

ALZ001>004-031000-
NORTHWEST ALABAMA

CITY           SKY/WX    TMP DP  RH WIND       PRES   REMARKS
SHOALS AIRPORT MOCLDY    60  56  86 NW3       29.95S
SHOALS TVA RES   N/A     59 N/A N/A MISG        N/A
$$

ALZ005>007-016-031000-
NORTH CENTRAL ALABAMA

CITY           SKY/WX    TMP DP  RH WIND       PRES   REMARKS
DECATUR AP     CLOUDY    59  56  89 NW8       29.94R
HUNTSVILLE AP  CLOUDY    61  57  87 NW6       29.92S
HUN NWS/UAH      N/A     61  55  81 NW3         N/A
MERIDIANVILLE  CLOUDY    59  52  77 N5        29.92S
REDSTONE ARSN    N/A    N/A N/A N/A NE6         N/A
VINEMONT AP    CLOUDY    59  57  92 NW3       29.94F
$$

ALZ008>010-031000-
NORTHEAST ALABAMA

CITY           SKY/WX    TMP DP  RH WIND       PRES   REMARKS
ALBERTVILLE    CLOUDY    63  63 100 NW3       29.90S
FORT PAYNE     CLOUDY    63  57  82 CALM      29.90R
SCOTTSBORO AP  CLOUDY    63  63 100 N6        29.91R
SCOTTSBORO HCN   N/A     63 N/A N/A MISG        N/A
VALLEY HEAD      N/A     63 N/A N/A MISG        N/A
$$

TNZ076-096-097-031000-
SOUTHEASTERN MIDDLE TENNESSEE

CITY           SKY/WX    TMP DP  RH WIND       PRES   REMARKS
TULLAHOMA      CLOUDY    57  57 100 N7        29.93S
WINCHESTER     CLOUDY    57  55  94 N3        29.92S
$$

...SURROUNDING SITES...

CITY           SKY/WX    TMP DP  RH WIND       PRES   REMARKS
ATLANTA        MOCLDY    65  62  90 W8        29.89S
ANNISTON       CLOUDY    66  63  90 W6        29.90S
BIRMINGHAM     CLOUDY    64  63  96 NW6       29.93S
CHATTANOOGA    CLOUDY    64  62  93 NW3       29.88F
DALTON         CLOUDY    63  63 100 CALM      29.88F FOG
GADSDEN        LGT RAIN  64  64 100 W5        29.91R
GOLDEN TRNGL   CLOUDY    63  57  82 NW5       29.93S
HALEYVILLE     CLOUDY    58  56  93 N5        29.95F
JACKSON TN     CLOUDY    57  50  77 N6        29.97S
MEMPHIS        PTCLDY    57  51  80 N6        29.98R
NASHVILLE      CLOUDY    57  51  80 NW6       29.95S
OXFORD MS      MOCLDY    57  57 100 NW3       29.97F FOG
ROME           CLOUDY    65  63  93 SW5       29.88R
SAVANNAH       CLOUDY    59  57  94 N8        29.95S
TUPELO         PTCLDY    59  56  89 NW3       29.94S
TUSCALOOSA     CLOUDY    64  64 100 NW3       29.92F
$$

...GULF COAST WEATHER...

CITY           SKY/WX    TMP DP  RH WIND       PRES   REMARKS
GULFPORT       FOG       68  67  96 CALM      29.89F VSB 1/4
PASCAGOULA     MOCLDY    71  70  96 CALM      29.90S FOG
MOBILE         FOG       69  69 100 CALM      29.91S VSB 1/2
GULF SHORES    PTSUNNY   67  67 100 CALM      29.90S
DESTIN         MOCLDY    77  75  93 VRB6      29.90
PANAMA CITY    PTCLDY    75  72  91 W5        29.90
APPALACHICOLA  CLEAR     75  73  93 SW6       29.90F
$$




USA.gov is the U.S. government's official web portal to all federal, state and local government web resources and services.